Lid_Strength_Index
-0 -0 0 3 11 12 15 13 10 10 9 6 6 7 8 7 9 13 2 1 0 0 -0 -1 -2 -2 -1 -1 -1 -1 -1 -1 -1 -1 -1 -1 -1 -1 -1 -1 -2 -1 -1 -1 -1 -1 -1 -1 -1
0 1 2 7 13 16 15 11 12 9 7 6 6 6 8 9 5 4 3 1 -0 -0 -0 -0 -1 -2 -1 -1 -1 -1 -1 -1 -1 -1 -1 -1 -1 -1 -1 -1 -1 -1 -1 -1 -1 -1 -1 -1 -1
0 1 7 10 13 16 15 11 10 7 6 6 7 6 7 8 4 4 1 0 -0 -0 -0 -0 -1 -1 -1 -1 -1 -1 -1 -1 -1 -1 -1 -1 -1 -1 -1 -1 -1 -1 -1 -2 -1 -1 -1 -1 -2
2 4 6 12 14 12 12 10 8 8 7 6 7 9 5 3 3 2 1 0 0 -0 -0 -1 -1 -1 -2 -1 -1 -1 -1 -1 -1 -1 -1 -1 -1 -1 -1 -1 -1 -1 -2 -2 -1 -1 -1 -1 -1
3 6 12 13 13 11 9 8 8 9 8 7 6 9 7 3 1 1 1 0 1 0 0 -0 -2 -1 -1 -1 -1 -1 -1 -1 -1 -1 -1 -2 -1 -1 -1 -2 -2 -2 -2 -2 -2 -2 -2 -1 -1
8 7 14 15 13 10 9 7 8 8 7 7 7 8 7 2 2 1 0 0 -0 0 -0 -0 -1 -1 -1 -1 -1 -1 -1 -1 -1 -1 -2 -1 -1 -1 -2 -2 -2 -2 -2 -2 -1 -2 -2 -1 -1
9 11 13 13 13 11 10 6 8 8 8 8 6 9 6 4 2 1 1 0 0 -0 -0 0 -0 -1 -1 -1 -1 -1 -1 -1 -1 -1 -1 -1 -1 -1 -1 -2 -2 -2 -2 -2 -2 -2 -2 -2 -2
7 9 12 12 13 12 8 7 7 7 8 4 4 9 8 4 2 1 1 1 0 0 0 0 0 0 0 0 -1 -1 -1 -1 -1 -1 -1 -1 -1 -1 -1 -2 -2 -2 -2 -2 -2 -2 -2 -2 -2
4 12 14 12 12 11 7 9 6 5 7 5 5 5 4 2 2 2 2 2 1 1 1 1 1 0 0 0 -1 -1 -1 -1 -1 -1 -1 -1 0 0 -1 -1 -2 -2 -2 -2 -2 -2 -2 -2 -2
8 12 12 8 8 9 8 8 7 8 7 7 6 4 3 3 3 3 3 3 2 2 1 1 1 0 0 -1 0 0 -0 -0 -0 -0 -0 -0 0 0 -0 -1 -1 -2 -2 -2 -2 -1 -1 -1 -0
8 12 8 8 7 7 8 8 6 8 9 7 7 6 4 4 3 4 3 3 3 2 1 1 1 0 0 0 1 0 0 0 -0 -0 0 0 -0 0 0 0 0 0 -1 -0 -1 -1 -0 -0 -0
10 7 7 7 6 7 8 7 8 7 7 5 4 4 4 4 4 4 3 3 2 2 1 1 0 0 1 0 1 0 0 0 0 -0 0 1 1 1 1 0 0 1 0 1 -0 -0 -0 0 -0
9 8 6 6 6 7 6 8 8 8 5 4 4 4 4 4 4 3 3 2 2 2 1 1 0 1 1 0 0 0 0 0 0 0 0 0 1 0 0 0 0 1 1 0 1 1 0 0 -0
7 8 7 7 7 7 8 8 7 6 5 5 5 5 4 4 4 3 3 3 2 2 1 1 1 1 1 0 0 0 0 0 0 0 0 -0 1 1 1 0 1 1 0 1 0 2 0 0 0
7 9 10 8 8 8 7 10 9 6 5 6 6 5 4 4 3 3 3 3 2 2 1 1 1 1 1 0 0 0 1 0 1 1 1 0 -0 0 1 1 1 0 -0 1 0 0 0 1 1
11 13 15 10 8 8 8 14 8 6 7 7 6 5 5 4 4 3 2 2 2 1 2 1 0 1 1 0 1 1 1 1 1 1 1 0 -0 0 1 1 1 0 1 1 1 0 1 1 1
12 14 14 12 8 9 10 13 8 6 7 7 7 6 5 5 4 3 2 2 2 2 1 1 1 1 1 1 1 2 2 1 1 1 0 1 -0 -0 0 1 0 0 1 0 0 1 2 2 2
14 14 16 14 9 8 11 11 9 7 7 7 7 6 6 5 4 3 2 2 1 1 1 1 1 1 1 1 1 1 2 1 0 1 0 -0 0 0 0 1 0 0 1 1 1 2 2 1 2
11 12 12 13 10 11 11 11 10 8 8 8 7 6 6 5 4 3 2 2 2 1 1 1 1 2 2 2 2 2 2 2 1 1 0 0 1 -0 1 0 0 0 1 1 2 1 2 2 2
11 11 12 10 10 12 12 12 10 9 8 8 7 7 6 5 4 3 3 2 2 2 2 1 1 2 2 2 2 2 2 1 1 1 0 -0 -0 -0 0 0 1 1 1 2 1 1 2 2 2
11 12 11 11 10 10 12 14 12 9 8 7 6 6 5 5 5 4 3 3 2 2 2 2 1 1 1 2 2 1 2 1 2 1 1 0 0 0 0 0 1 1 1 1 2 2 2 3 2
14 9 9 10 13 15 11 16 14 11 10 9 7 7 6 5 4 4 4 3 3 2 1 1 1 1 1 2 2 2 2 3 2 2 1 1 1 0 0 0 0 1 1 2 2 1 1 2 3
10 8 9 10 13 15 13 14 13 11 12 10 8 7 6 5 5 4 4 3 2 2 2 2 1 1 1 1 1 2 2 3 2 2 2 1 1 0 -0 0 1 1 1 2 1 1 1 2 2
7 10 12 14 15 17 15 15 14 14 12 10 8 7 6 5 5 4 3 3 3 2 2 2 2 1 1 1 2 1 2 2 2 2 2 1 2 1 1 0 0 1 1 1 1 1 1 1 2
11 14 17 17 17 18 16 15 13 10 9 9 8 7 6 5 5 4 4 4 4 3 2 2 2 2 1 1 2 2 1 2 2 2 2 2 2 1 1 1 1 1 1 1 1 1 1 1 2
14 15 17 19 19 17 15 16 13 9 7 7 7 6 6 6 5 4 4 4 4 3 2 2 2 2 2 1 1 2 2 1 2 2 1 1 1 1 0 1 1 1 0 1 1 1 1 1 1
14 16 14 16 17 16 15 13 10 8 8 8 8 7 6 6 5 4 4 3 4 3 3 2 2 2 2 1 1 2 2 2 2 1 1 1 2 1 1 1 1 1 1 1 1 1 2 1 2
13 13 16 16 18 19 16 15 14 11 10 8 8 8 7 6 6 5 4 3 3 3 3 2 2 2 2 1 1 1 1 1 1 1 1 1 1 1 1 1 1 1 1 1 1 1 1 1 1
14 15 16 17 17 18 18 15 11 10 10 9 9 7 7 6 5 5 4 3 3 3 3 3 2 2 2 2 1 1 1 1 1 1 1 1 2 2 2 1 1 1 1 1 1 1 1 1 2
11 14 16 18 18 18 17 15 8 9 9 8 8 7 6 6 5 4 4 3 3 3 3 3 3 2 2 2 2 2 1 1 1 1 1 1 1 2 2 1 0 0 1 1 1 1 1 2 2